Time,TemperatureF,DewpointF,PressureIn,WindDirection,WindDirectionDegrees,WindSpeedMPH,WindSpeedGustMPH,Humidity,HourlyPrecipIn,Conditions,Clouds,dailyrainin,SoftwareType,DateUTC
2013-05-26 00:03:00,55.0,39.0,-100.00,ENE,65,3.0,5.0,54,0.00,,,0.00,,2013-05-26 04:03:00,
2013-05-26 00:12:00,55.0,39.0,-100.00,ENE,61,3.0,4.0,55,0.00,,,0.00,,2013-05-26 04:12:00,
2013-05-26 00:23:00,55.0,39.0,-100.00,ENE,61,3.0,4.0,55,0.00,,,0.00,,2013-05-26 04:23:00,
2013-05-26 00:33:00,55.0,39.0,-100.00,NE,38,3.0,5.0,54,0.00,,,0.00,,2013-05-26 04:33:00,
2013-05-26 00:42:00,55.0,39.0,-100.00,NE,38,3.0,5.0,54,0.00,,,0.00,,2013-05-26 04:42:00,
2013-05-26 00:52:00,55.0,38.0,-100.00,NE,45,2.0,4.0,53,0.00,,,0.00,,2013-05-26 04:52:00,
2013-05-26 01:02:00,55.0,39.0,-100.00,NE,51,2.0,2.0,53,0.00,,,0.00,,2013-05-26 05:02:00,
2013-05-26 01:12:00,55.0,39.0,-100.00,NE,51,2.0,2.0,53,0.00,,,0.00,,2013-05-26 05:12:00,
2013-05-26 01:22:00,55.0,40.0,-100.00,ENE,59,3.0,4.0,56,0.00,,,0.00,,2013-05-26 05:22:00,
2013-05-26 01:32:00,54.0,40.0,-100.00,ENE,65,3.0,5.0,59,0.00,,,0.00,,2013-05-26 05:32:00,
2013-05-26 01:42:00,54.0,40.0,-100.00,ENE,65,3.0,5.0,59,0.00,,,0.00,,2013-05-26 05:42:00,
2013-05-26 01:52:00,54.0,41.0,-100.00,NNE,18,2.0,4.0,63,0.00,,,0.00,,2013-05-26 05:52:00,
2013-05-26 02:01:00,53.0,42.0,-100.00,NE,56,2.0,4.0,64,0.00,,,0.00,,2013-05-26 06:01:00,
2013-05-26 02:12:00,53.0,42.0,-100.00,NE,56,2.0,4.0,64,0.00,,,0.00,,2013-05-26 06:12:00,
2013-05-26 02:22:00,53.0,42.0,-100.00,ENE,72,2.0,5.0,66,0.00,,,0.00,,2013-05-26 06:22:00,
2013-05-26 02:32:00,53.0,42.0,-100.00,ENE,65,3.0,5.0,67,0.00,,,0.00,,2013-05-26 06:32:00,
2013-05-26 02:42:00,53.0,42.0,-100.00,ENE,65,3.0,5.0,67,0.00,,,0.00,,2013-05-26 06:42:00,
2013-05-26 02:52:00,53.0,42.0,-100.00,NE,34,3.0,6.0,68,0.00,,,0.00,,2013-05-26 06:52:00,
2013-05-26 03:02:00,53.0,42.0,-100.00,NE,35,3.0,6.0,65,0.00,,,0.00,,2013-05-26 07:02:00,
2013-05-26 03:11:00,53.0,42.0,-100.00,NE,35,3.0,6.0,65,0.00,,,0.00,,2013-05-26 07:11:00,
2013-05-26 03:22:00,53.0,41.0,-100.00,ENE,62,2.0,5.0,65,0.00,,,0.00,,2013-05-26 07:22:00,
2013-05-26 03:32:00,53.0,41.0,-100.00,ENE,62,2.0,5.0,65,0.00,,,0.00,,2013-05-26 07:32:00,
2013-05-26 03:42:00,53.0,41.0,-100.00,ENE,62,2.0,5.0,65,0.00,,,0.00,,2013-05-26 07:42:00,
2013-05-26 03:52:00,53.0,41.0,-100.00,ENE,62,2.0,5.0,65,0.00,,,0.00,,2013-05-26 07:52:00,
2013-05-26 04:01:00,52.0,42.0,-100.00,NE,47,3.0,4.0,68,0.00,,,0.00,,2013-05-26 08:01:00,
2013-05-26 04:12:00,52.0,42.0,-100.00,NE,47,3.0,4.0,68,0.00,,,0.00,,2013-05-26 08:12:00,
2013-05-26 04:21:00,52.0,42.0,-100.00,NE,42,3.0,4.0,68,0.00,,,0.00,,2013-05-26 08:21:00,
2013-05-26 04:32:00,52.0,42.0,-100.00,NE,52,3.0,5.0,70,0.00,,,0.00,,2013-05-26 08:32:00,
2013-05-26 04:42:00,52.0,42.0,-100.00,NE,52,3.0,5.0,70,0.00,,,0.00,,2013-05-26 08:42:00,
2013-05-26 04:53:00,51.0,43.0,-100.00,NE,48,3.0,5.0,72,0.00,,,0.00,,2013-05-26 08:53:00,
2013-05-26 05:01:00,51.0,43.0,-100.00,NNE,23,2.0,4.0,73,0.00,,,0.01,,2013-05-26 09:01:00,
2013-05-26 05:11:00,51.0,43.0,-100.00,NNE,23,2.0,4.0,73,0.00,,,0.01,,2013-05-26 09:11:00,
2013-05-26 05:22:00,51.0,43.0,-100.00,ENE,58,5.0,9.0,72,0.00,,,0.01,,2013-05-26 09:22:00,
2013-05-26 05:33:00,52.0,41.0,-100.00,ENE,58,4.0,6.0,65,0.00,,,0.01,,2013-05-26 09:33:00,
2013-05-26 05:43:00,52.0,41.0,-100.00,ENE,58,4.0,6.0,65,0.00,,,0.01,,2013-05-26 09:43:00,
2013-05-26 05:53:00,52.0,41.0,-100.00,NE,52,7.0,13.0,67,0.00,,,0.01,,2013-05-26 09:53:00,
2013-05-26 06:03:00,52.0,42.0,-100.00,NE,55,5.0,9.0,69,0.00,,,0.01,,2013-05-26 10:03:00,
2013-05-26 06:12:00,52.0,42.0,-100.00,NE,55,5.0,9.0,69,0.00,,,0.01,,2013-05-26 10:12:00,
2013-05-26 06:23:00,51.0,42.0,-100.00,NNE,23,3.0,8.0,72,0.00,,,0.01,,2013-05-26 10:23:00,
2013-05-26 06:33:00,51.0,42.0,-100.00,NE,38,4.0,7.0,70,0.00,,,0.01,,2013-05-26 10:33:00,
2013-05-26 06:42:00,51.0,42.0,-100.00,NE,38,4.0,7.0,70,0.00,,,0.01,,2013-05-26 10:42:00,
2013-05-26 06:52:00,52.0,39.0,-100.00,NE,55,4.0,6.0,62,0.00,,,0.01,,2013-05-26 10:52:00,
2013-05-26 07:03:00,52.0,40.0,-100.00,NE,35,4.0,6.0,64,0.00,,,0.01,,2013-05-26 11:03:00,
2013-05-26 07:11:00,52.0,40.0,-100.00,NE,35,4.0,6.0,64,0.00,,,0.01,,2013-05-26 11:11:00,
2013-05-26 07:22:00,52.0,40.0,-100.00,NE,35,4.0,6.0,64,0.00,,,0.01,,2013-05-26 11:22:00,
2013-05-26 07:32:00,51.0,42.0,-100.00,North,350,0.0,1.0,71,0.00,,,0.01,,2013-05-26 11:32:00,
2013-05-26 07:42:00,51.0,42.0,-100.00,North,350,0.0,1.0,71,0.00,,,0.01,,2013-05-26 11:42:00,
2013-05-26 07:52:00,51.0,43.0,-100.00,WSW,243,1.0,2.0,73,0.00,,,0.01,,2013-05-26 11:52:00,
2013-05-26 08:02:00,51.0,42.0,-100.00,West,272,1.0,2.0,72,0.00,,,0.01,,2013-05-26 12:02:00,
2013-05-26 08:12:00,51.0,42.0,-100.00,West,272,1.0,2.0,72,0.00,,,0.01,,2013-05-26 12:12:00,
2013-05-26 08:22:00,51.0,43.0,-100.00,SW,220,0.0,0.0,73,0.00,,,0.01,,2013-05-26 12:22:00,
2013-05-26 08:32:00,52.0,44.0,-100.00,ESE,106,1.0,2.0,75,0.00,,,0.01,,2013-05-26 12:32:00,
2013-05-26 08:42:00,52.0,44.0,-100.00,ESE,106,1.0,2.0,75,0.00,,,0.01,,2013-05-26 12:42:00,
2013-05-26 08:52:00,52.0,45.0,-100.00,ESE,116,0.0,1.0,78,0.00,,,0.01,,2013-05-26 12:52:00,
2013-05-26 09:02:00,52.0,46.0,-100.00,ESE,120,0.0,0.0,80,0.00,,,0.01,,2013-05-26 13:02:00,
2013-05-26 09:11:00,52.0,46.0,-100.00,ESE,120,0.0,0.0,80,0.00,,,0.01,,2013-05-26 13:11:00,
2013-05-26 09:22:00,53.0,46.0,-100.00,South,176,0.0,1.0,76,0.00,,,0.01,,2013-05-26 13:22:00,
2013-05-26 09:32:00,55.0,46.0,-100.00,SE,140,0.0,1.0,71,0.00,,,0.01,,2013-05-26 13:32:00,
2013-05-26 09:42:00,55.0,46.0,-100.00,SE,140,0.0,1.0,71,0.00,,,0.01,,2013-05-26 13:42:00,
2013-05-26 09:52:00,56.0,43.0,-100.00,South,186,1.0,2.0,62,0.00,,,0.01,,2013-05-26 13:52:00,
2013-05-26 10:02:00,56.0,45.0,-100.00,SSW,206,1.0,2.0,66,0.00,,,0.01,,2013-05-26 14:02:00,
2013-05-26 10:11:00,56.0,45.0,-100.00,SSW,206,1.0,2.0,66,0.00,,,0.01,,2013-05-26 14:11:00,
2013-05-26 10:22:00,58.0,46.0,-100.00,SSE,164,1.0,2.0,64,0.00,,,0.01,,2013-05-26 14:22:00,
2013-05-26 10:32:00,60.0,45.0,-100.00,ESE,116,1.0,2.0,56,0.00,,,0.01,,2013-05-26 14:32:00,
2013-05-26 10:42:00,60.0,45.0,-100.00,ESE,116,1.0,2.0,56,0.00,,,0.01,,2013-05-26 14:42:00,
2013-05-26 10:52:00,61.0,48.0,-100.00,SW,223,1.0,3.0,63,0.00,,,0.01,,2013-05-26 14:52:00,
2013-05-26 11:02:00,60.0,45.0,-100.00,West,270,2.0,5.0,57,0.00,,,0.01,,2013-05-26 15:02:00,
2013-05-26 11:12:00,60.0,45.0,-100.00,West,270,2.0,5.0,57,0.00,,,0.01,,2013-05-26 15:12:00,
2013-05-26 11:22:00,60.0,45.0,-100.00,SSW,209,1.0,2.0,57,0.00,,,0.01,,2013-05-26 15:22:00,
2013-05-26 11:33:00,63.0,43.0,-100.00,South,191,1.0,3.0,49,0.00,,,0.01,,2013-05-26 15:33:00,
2013-05-26 11:43:00,63.0,43.0,-100.00,South,191,1.0,3.0,49,0.00,,,0.01,,2013-05-26 15:43:00,
2013-05-26 11:53:00,63.0,43.0,-100.00,SW,219,2.0,5.0,48,0.00,,,0.01,,2013-05-26 15:53:00,
2013-05-26 12:03:00,64.0,45.0,-100.00,South,169,2.0,2.0,50,0.00,,,0.01,,2013-05-26 16:03:00,
2013-05-26 12:12:00,64.0,45.0,-100.00,South,169,2.0,2.0,50,0.00,,,0.01,,2013-05-26 16:12:00,
2013-05-26 12:23:00,65.0,46.0,-100.00,WSW,254,3.0,5.0,51,0.00,,,0.01,,2013-05-26 16:23:00,
2013-05-26 12:33:00,66.0,45.0,-100.00,ESE,110,2.0,4.0,47,0.00,,,0.01,,2013-05-26 16:33:00,
2013-05-26 12:42:00,66.0,45.0,-100.00,ESE,110,2.0,4.0,47,0.00,,,0.01,,2013-05-26 16:42:00,
2013-05-26 12:53:00,67.0,43.0,-100.00,SE,137,2.0,3.0,43,0.00,,,0.01,,2013-05-26 16:53:00,
2013-05-26 13:02:00,65.0,44.0,-100.00,SSW,196,1.0,3.0,46,0.00,,,0.01,,2013-05-26 17:02:00,
2013-05-26 13:11:00,65.0,44.0,-100.00,SSW,196,1.0,3.0,46,0.00,,,0.01,,2013-05-26 17:11:00,
2013-05-26 13:23:00,65.0,43.0,-100.00,SE,140,1.0,3.0,45,0.00,,,0.01,,2013-05-26 17:23:00,
2013-05-26 13:32:00,66.0,41.0,-100.00,SSE,147,4.0,6.0,39,0.00,,,0.01,,2013-05-26 17:32:00,
2013-05-26 13:42:00,66.0,41.0,-100.00,SSE,147,4.0,6.0,39,0.00,,,0.01,,2013-05-26 17:42:00,
2013-05-26 13:52:00,67.0,43.0,-100.00,East,92,5.0,8.0,42,0.00,,,0.01,,2013-05-26 17:52:00,
2013-05-26 14:01:00,66.0,42.0,-100.00,SSW,198,2.0,4.0,41,0.00,,,0.01,,2013-05-26 18:01:00,
2013-05-26 14:12:00,66.0,42.0,-100.00,SSW,198,2.0,4.0,41,0.00,,,0.01,,2013-05-26 18:12:00,
2013-05-26 14:22:00,66.0,46.0,-100.00,East,93,5.0,9.0,48,0.00,,,0.01,,2013-05-26 18:22:00,
2013-05-26 14:32:00,67.0,41.0,-100.00,ENE,75,6.0,11.0,39,0.00,,,0.01,,2013-05-26 18:32:00,
2013-05-26 14:42:00,67.0,41.0,-100.00,ENE,75,6.0,11.0,39,0.00,,,0.01,,2013-05-26 18:42:00,
2013-05-26 14:52:00,68.0,42.0,-100.00,NNE,25,4.0,9.0,39,0.00,,,0.01,,2013-05-26 18:52:00,
2013-05-26 15:01:00,69.0,46.0,-100.00,SSE,148,2.0,5.0,44,0.00,,,0.01,,2013-05-26 19:01:00,
2013-05-26 15:11:00,69.0,46.0,-100.00,SSE,148,2.0,5.0,44,0.00,,,0.01,,2013-05-26 19:11:00,
2013-05-26 15:22:00,68.0,46.0,-100.00,East,86,4.0,8.0,46,0.00,,,0.01,,2013-05-26 19:22:00,
2013-05-26 15:32:00,66.0,44.0,-100.00,East,92,4.0,7.0,44,0.00,,,0.01,,2013-05-26 19:32:00,
2013-05-26 15:42:00,66.0,44.0,-100.00,East,92,4.0,7.0,44,0.00,,,0.01,,2013-05-26 19:42:00,
2013-05-26 15:52:00,69.0,47.0,-100.00,ESE,119,2.0,4.0,45,0.00,,,0.01,,2013-05-26 19:52:00,
2013-05-26 16:02:00,69.0,47.0,-100.00,ESE,119,2.0,4.0,45,0.00,,,0.01,,2013-05-26 20:02:00,
2013-05-26 16:11:00,69.0,45.0,-100.00,East,83,2.0,5.0,42,0.00,,,0.01,,2013-05-26 20:11:00,
2013-05-26 16:22:00,69.0,45.0,-100.00,East,83,2.0,5.0,42,0.00,,,0.01,,2013-05-26 20:22:00,
2013-05-26 16:32:00,68.0,44.0,-100.00,East,89,7.0,11.0,42,0.00,,,0.01,,2013-05-26 20:32:00,
2013-05-26 16:42:00,68.0,44.0,-100.00,East,89,7.0,11.0,42,0.00,,,0.01,,2013-05-26 20:42:00,
2013-05-26 16:52:00,70.0,47.0,-100.00,South,181,1.0,3.0,44,0.00,,,0.01,,2013-05-26 20:52:00,
2013-05-26 17:02:00,67.0,45.0,-100.00,SE,130,2.0,5.0,46,0.00,,,0.01,,2013-05-26 21:02:00,
2013-05-26 17:12:00,67.0,45.0,-100.00,SE,130,2.0,5.0,46,0.00,,,0.01,,2013-05-26 21:12:00,
2013-05-26 17:22:00,67.0,45.0,-100.00,ESE,123,2.0,5.0,45,0.00,,,0.01,,2013-05-26 21:22:00,
2013-05-26 17:33:00,67.0,47.0,-100.00,ESE,121,6.0,14.0,48,0.00,,,0.01,,2013-05-26 21:33:00,
2013-05-26 17:43:00,67.0,47.0,-100.00,ESE,121,6.0,14.0,48,0.00,,,0.01,,2013-05-26 21:43:00,
2013-05-26 17:53:00,67.0,47.0,-100.00,ESE,121,3.0,5.0,49,0.00,,,0.01,,2013-05-26 21:53:00,
2013-05-26 18:03:00,69.0,49.0,-100.00,South,182,1.0,2.0,48,0.00,,,0.01,,2013-05-26 22:03:00,
2013-05-26 18:12:00,69.0,49.0,-100.00,South,182,1.0,2.0,48,0.00,,,0.01,,2013-05-26 22:12:00,
2013-05-26 18:23:00,69.0,49.0,-100.00,South,182,1.0,2.0,48,0.00,,,0.01,,2013-05-26 22:23:00,
2013-05-26 18:33:00,68.0,48.0,-100.00,SE,143,2.0,3.0,48,0.00,,,0.01,,2013-05-26 22:33:00,
2013-05-26 18:42:00,68.0,48.0,-100.00,SE,143,2.0,3.0,48,0.00,,,0.01,,2013-05-26 22:42:00,
2013-05-26 18:53:00,67.0,46.0,-100.00,East,86,3.0,6.0,47,0.00,,,0.01,,2013-05-26 22:53:00,
2013-05-26 19:02:00,68.0,48.0,-100.00,NW,308,1.0,3.0,48,0.00,,,0.01,,2013-05-26 23:02:00,
2013-05-26 19:12:00,68.0,48.0,-100.00,NW,308,1.0,3.0,48,0.00,,,0.01,,2013-05-26 23:12:00,
2013-05-26 19:22:00,67.0,47.0,-100.00,ENE,72,4.0,6.0,49,0.00,,,0.01,,2013-05-26 23:22:00,
2013-05-26 19:32:00,67.0,47.0,-100.00,ENE,72,4.0,6.0,49,0.00,,,0.01,,2013-05-26 23:32:00,
2013-05-26 19:43:00,67.0,47.0,-100.00,ENE,72,4.0,6.0,49,0.00,,,0.01,,2013-05-26 23:43:00,
2013-05-26 19:52:00,65.0,49.0,-100.00,SSE,158,0.0,3.0,54,0.00,,,0.01,,2013-05-26 23:52:00,
2013-05-26 20:02:00,65.0,49.0,-100.00,NNE,27,3.0,5.0,55,0.00,,,0.01,,2013-05-27 00:02:00,
2013-05-26 20:11:00,65.0,49.0,-100.00,NNE,27,3.0,5.0,55,0.00,,,0.01,,2013-05-27 00:11:00,
2013-05-26 20:22:00,64.0,49.0,-100.00,North,10,2.0,3.0,59,0.00,,,0.01,,2013-05-27 00:22:00,
2013-05-26 20:32:00,64.0,47.0,-100.00,ENE,69,3.0,5.0,54,0.00,,,0.01,,2013-05-27 00:32:00,
2013-05-26 20:42:00,64.0,47.0,-100.00,ENE,69,3.0,5.0,54,0.00,,,0.01,,2013-05-27 00:42:00,
2013-05-26 20:52:00,63.0,48.0,-100.00,NE,54,4.0,5.0,56,0.00,,,0.01,,2013-05-27 00:52:00,
2013-05-26 21:01:00,63.0,47.0,-100.00,NE,52,3.0,4.0,57,0.00,,,0.01,,2013-05-27 01:01:00,
2013-05-26 21:11:00,63.0,47.0,-100.00,NE,52,3.0,4.0,57,0.00,,,0.01,,2013-05-27 01:11:00,
2013-05-26 21:22:00,62.0,48.0,-100.00,NE,48,3.0,5.0,59,0.00,,,0.01,,2013-05-27 01:22:00,
2013-05-26 21:32:00,62.0,48.0,-100.00,NE,34,3.0,4.0,60,0.00,,,0.01,,2013-05-27 01:32:00,
2013-05-26 21:42:00,62.0,48.0,-100.00,NE,34,3.0,4.0,60,0.00,,,0.01,,2013-05-27 01:42:00,
2013-05-26 21:52:00,61.0,48.0,-100.00,ENE,65,2.0,4.0,61,0.00,,,0.01,,2013-05-27 01:52:00,
2013-05-26 22:02:00,61.0,48.0,-100.00,NE,41,2.0,4.0,63,0.00,,,0.01,,2013-05-27 02:02:00,
2013-05-26 22:11:00,61.0,48.0,-100.00,NE,41,2.0,4.0,63,0.00,,,0.01,,2013-05-27 02:11:00,
2013-05-26 22:22:00,61.0,48.0,-100.00,NE,40,4.0,6.0,63,0.00,,,0.01,,2013-05-27 02:22:00,
2013-05-26 22:32:00,61.0,48.0,-100.00,NE,49,4.0,8.0,63,0.00,,,0.01,,2013-05-27 02:32:00,
2013-05-26 22:42:00,60.0,47.0,-100.00,NE,35,5.0,7.0,62,0.00,,,0.01,,2013-05-27 02:42:00,
2013-05-26 22:52:00,60.0,47.0,-100.00,NE,35,5.0,7.0,62,0.00,,,0.01,,2013-05-27 02:52:00,
2013-05-26 23:02:00,60.0,47.0,-100.00,NE,55,4.0,7.0,62,0.00,,,0.01,,2013-05-27 03:02:00,
2013-05-26 23:11:00,60.0,47.0,-100.00,NE,55,4.0,7.0,62,0.00,,,0.01,,2013-05-27 03:11:00,
2013-05-26 23:21:00,60.0,47.0,-100.00,NE,42,6.0,9.0,62,0.00,,,0.01,,2013-05-27 03:21:00,
2013-05-26 23:33:00,60.0,47.0,-100.00,NE,56,4.0,7.0,62,0.00,,,0.01,,2013-05-27 03:33:00,
2013-05-26 23:43:00,60.0,47.0,-100.00,NE,56,4.0,7.0,62,0.00,,,0.01,,2013-05-27 03:43:00,
2013-05-26 23:53:00,60.0,47.0,-100.00,NE,56,4.0,7.0,62,0.00,,,0.01,,2013-05-27 03:53:00,